Location: Home
(42.5358°N, 72.7383°W)
Time: 19:52:07
(UTC-05:00)

Transit 4A - Pass Details

Date: 03 December 2021
Orbit: 863 x 981 km, 66.8° (Epoch: 23 January)

Event Time Altitude Azimuth Distance (km) Brightness Sun altitude
Rises 20:06:17 0° 235° (SW) 3,454 11.4 -41.3°
Reaches altitude 10° 20:08:55 10° 244° (WSW) 2,531 10.7 -41.8°
Enters shadow 20:10:50 20° 255° (WSW) 1,934 10.0 -42.1°
Maximum altitude 20:14:19 37° 311° (NW) 1,361 - -42.7°
Drops below altitude 10° 20:19:53 10° 18° (NNE) 2,611 - -43.8°
Sets 20:22:39 0° 26° (NNE) 3,576 - -44.3°
